Probability
0 0 0 0 0 0 0 0 0 1 1 0 0 0 0 0 0 0 0 0 0 0 0 0 0 0 0 0 0 0 0 0 0 0 0 0 0 0 0 0 0 0 0
0 0 0 0 0 0 0 0 0 1 1 0 0 0 0 0 0 0 0 0 0 0 0 0 0 0 0 0 0 0 0 0 0 0 0 0 0 0 0 0 0 0 0
0 0 0 0 0 0 0 0 0 1 1 0 0 0 0 0 0 0 0 0 0 0 0 0 0 0 0 0 0 0 0 0 0 0 0 0 0 0 0 0 0 0 0
0 0 0 0 0 0 0 0 0 0 0 0 0 0 0 0 0 0 0 0 0 0 0 0 0 0 0 0 0 0 0 0 0 0 0 0 0 0 0 0 0 0 0
0 0 0 1 1 1 0 0 0 0 0 0 0 0 0 0 0 0 1 1 0 0 0 0 0 0 0 0 0 0 0 0 0 0 0 0 0 0 0 1 1 0 0
0 0 1 2 2 2 1 0 0 0 0 0 0 0 0 0 0 0 1 1 0 0 0 0 0 0 0 0 0 0 1 1 0 0 0 0 0 0 0 1 1 0 0
0 0 1 2 2 2 1 0 0 0 0 0 0 0 0 0 0 0 1 1 0 0 1 1 1 1 1 1 1 1 1 1 0 0 0 0 0 0 0 0 0 0 0
0 0 0 1 1 1 0 0 0 0 0 0 0 0 0 0 0 0 0 0 1 1 2 2 2 2 2 1 1 1 1 1 0 0 0 0 0 0 0 0 0 0 0
0 0 0 0 0 0 0 0 0 0 0 0 0 0 0 0 0 0 0 0 1 2 3 3 3 3 2 1 0 0 0 0 0 0 0 0 0 0 0 0 0 0 0
0 0 0 0 0 0 0 0 0 0 0 0 0 0 0 0 0 0 0 0 1 2 3 3 3 2 2 1 0 0 0 0 0 0 0 0 0 0 0 0 0 0 0
0 0 0 0 0 0 0 0 0 0 0 0 0 0 0 0 0 0 0 0 0 1 2 2 1 1 1 0 0 0 0 0 0 0 0 0 0 0 0 0 0 0 0
0 0 0 0 0 0 0 0 0 0 0 0 0 0 0 0 0 0 0 0 0 0 1 1 0 0 0 0 0 0 0 0 0 0 0 0 0 0 0 0 0 0 0
0 0 0 0 0 0 0 0 0 0 0 0 0 0 0 0 0 0 0 0 0 0 0 0 0 0 0 0 0 0 0 0 0 0 0 0 0 0 1 0 0 0 0
0 0 0 0 0 0 0 0 0 0 0 0 0 0 0 0 0 0 0 0 0 0 0 0 0 0 0 0 0 0 0 0 0 0 0 0 0 0 0 0 0 0 0
0 0 0 0 0 0 0 0 0 0 0 0 0 0 0 0 0 0 0 0 0 0 0 0 0 0 0 0 0 0 0 0 0 0 0 1 1 1 0 0 0 0 0
0 0 0 0 0 0 0 0 0 0 0 0 0 0 0 0 0 0 0 0 0 0 0 0 0 0 0 0 0 0 0 0 0 0 0 1 1 1 0 0 0 0 0
0 0 0 0 0 0 0 0 0 0 0 0 0 0 0 0 0 0 0 0 0 0 0 0 0 0 0 0 0 0 0 0 0 0 0 1 1 0 0 0 0 0 0
0 0 0 0 0 0 0 0 0 0 0 0 0 0 0 0 0 0 0 0 0 0 0 0 0 0 0 0 0 0 0 0 0 0 0 1 0 0 0 0 0 0 0
0 0 0 0 0 0 0 0 0 0 0 0 0 0 0 0 0 0 0 0 0 0 0 0 0 0 0 0 0 0 0 0 0 0 0 0 0 0 0 0 0 0 0
0 0 0 0 0 0 0 0 0 0 0 0 0 0 0 0 0 0 0 0 0 0 0 0 0 0 0 0 0 0 0 0 0 0 0 0 0 0 0 0 0 0 0
0 0 0 0 0 0 0 0 0 0 0 0 0 0 0 0 0 0 0 0 0 0 0 0 0 0 0 0 0 0 0 0 0 0 0 0 0 0 0 0 0 0 0
0 0 0 0 0 0 0 0 0 0 0 0 0 0 0 0 0 0 0 0 0 0 0 0 0 0 0 0 0 0 0 0 0 0 0 0 0 1 1 1 0 0 0
0 0 0 0 0 0 0 0 0 0 0 0 0 0 0 0 0 0 0 0 0 0 0 0 0 0 0 0 0 0 0 0 0 0 0 0 0 1 2 1 0 0 0
0 0 0 0 0 0 0 0 0 0 0 0 0 0 0 0 0 0 0 0 0 0 0 0 0 0 0 0 0 0 0 0 0 0 0 0 0 1 2 1 0 0 0
0 0 0 0 0 0 0 0 0 0 0 0 0 0 0 0 0 0 0 0 0 0 0 0 0 0 0 0 0 0 0 0 0 0 0 0 0 0 1 1 0 0 0
0 0 0 0 0 0 0 0 0 0 0 0 0 0 0 0 0 0 0 0 0 0 0 0 0 0 0 0 0 0 0 0 0 0 0 0 0 0 0 0 0 0 0
Wind_Speed
1 2 8 10 10 11 11 11 11 11 11 11 11 11 11 11 10 10 10 9 9 8 8 8 8 9 9 8 8 8 8 8 9 8 8 8 8 7 7 7 6 4 7
5 4 9 10 10 10 11 11 10 10 10 10 10 10 10 10 10 9 9 8 8 8 8 8 8 8 8 8 8 8 8 8 8 8 8 7 7 7 7 7 7 5 7
6 5 7 10 10 10 10 10 10 10 10 9 9 9 9 9 9 8 8 8 8 8 8 7 7 7 8 7 7 7 7 7 7 7 6 3 4 7 8 8 8 8 7
7 5 7 10 10 10 10 9 9 9 9 8 8 8 8 8 8 8 8 8 8 7 7 7 7 7 7 7 6 6 6 6 6 6 3 3 3 6 7 7 8 8 7
7 5 6 10 9 9 9 9 9 8 8 8 8 7 7 7 7 7 7 7 7 6 6 6 6 6 6 6 6 6 6 7 7 5 3 3 2 6 7 7 7 7 7
7 5 6 10 9 9 9 8 8 8 8 8 7 7 7 7 6 6 6 6 6 6 6 6 5 5 5 5 5 6 6 7 6 3 3 2 2 6 8 7 7 6 6
6 5 6 10 9 8 8 8 7 7 7 7 7 6 6 6 6 6 6 6 6 5 5 5 5 5 5 6 6 6 7 7 4 3 2 2 3 7 7 7 7 6 5
8 5 5 9 9 8 8 7 7 6 6 5 5 5 5 5 5 5 5 5 5 5 5 5 4 4 5 6 6 6 7 6 5 3 2 2 5 7 7 6 6 6 6
7 5 4 4 5 7 7 6 6 5 4 3 3 3 3 4 4 4 4 4 4 4 4 4 4 4 5 6 6 7 7 7 4 2 3 2 5 6 6 6 6 6 6
5 4 4 3 3 2 3 5 4 4 3 2 1 2 2 2 2 3 3 3 4 4 4 4 4 4 5 6 6 7 8 7 3 2 2 2 6 6 7 6 6 6 5
5 4 4 4 3 3 2 3 2 2 2 1 1 1 1 1 1 0 1 2 3 3 3 3 4 5 6 6 7 8 6 3 3 2 1 4 6 7 7 6 6 5 5
6 5 4 4 4 3 2 1 0 0 1 1 1 1 1 0 1 0 1 2 3 4 4 4 5 5 5 3 5 6 3 3 3 2 2 6 6 7 7 6 6 6 5
6 5 5 4 4 3 1 1 0 1 1 2 2 1 1 2 1 2 1 2 3 4 3 4 4 3 3 2 3 2 3 2 2 2 3 7 7 7 8 8 8 7 7
5 5 5 5 4 3 2 2 1 1 1 1 1 1 2 2 1 1 1 1 2 2 2 2 2 3 3 4 3 3 3 2 2 2 3 7 8 9 9 9 9 9 9
5 5 5 5 4 3 3 2 2 1 1 1 2 2 2 2 2 1 1 2 2 2 3 3 3 4 4 4 4 5 4 4 4 3 3 8 10 10 10 10 10 10 10
5 5 5 5 5 4 3 2 2 2 2 2 3 3 3 2 2 2 2 2 2 2 3 3 4 4 4 4 5 5 5 4 4 4 4 5 10 10 11 11 12 12 11
6 6 6 6 5 5 4 3 2 2 3 3 2 3 3 3 3 3 3 3 2 3 4 4 4 4 4 5 5 5 5 4 4 4 4 4 5 9 11 12 13 13 13
6 6 6 7 6 5 4 4 3 3 4 3 3 3 4 4 4 4 3 3 3 3 3 4 3 4 4 4 4 4 4 4 5 5 5 4 4 5 8 13 13 13 13
6 6 6 6 6 5 5 4 4 4 4 3 3 3 4 4 4 4 3 3 3 3 3 4 3 3 4 4 5 5 4 4 4 5 5 5 5 5 4 8 12 13 13
6 6 6 5 5 5 4 4 3 4 3 3 3 3 4 3 4 4 3 4 4 4 4 4 4 3 3 3 6 6 5 4 4 5 5 5 5 5 5 6 5 7 13
6 6 5 6 4 4 3 3 3 2 2 2 3 4 4 4 4 4 3 4 4 4 3 4 4 5 3 3 4 4 5 5 6 5 4 4 5 5 5 6 5 4 5
6 6 5 6 5 4 3 3 2 2 1 1 2 3 4 4 4 4 4 3 3 4 4 4 3 3 2 1 3 3 3 4 5 5 4 4 4 4 5 6 5 5 5
6 6 6 5 5 4 5 4 4 3 3 3 3 2 3 4 4 4 4 3 3 3 3 3 3 3 2 1 1 3 3 2 1 3 4 4 4 4 4 4 6 6 6
6 5 6 6 5 5 5 6 5 3 2 1 1 1 2 3 4 4 4 4 3 3 3 2 2 2 3 1 1 1 2 4 3 1 3 3 4 4 4 4 5 5 5
6 6 6 6 5 5 5 6 6 4 2 1 1 2 2 3 3 4 3 3 3 2 2 2 2 2 2 2 1 1 3 2 2 3 1 2 3 3 3 3 3 4 4
6 6 6 6 5 5 5 6 6 6 4 4 2 2 1 1 2 3 3 3 3 2 2 2 3 3 2 2 2 2 2 2 2 3 3 1 1 2 3 3 3 3 3
Wind_Direction
114 118 106 102 99 95 93 90 87 84 83 83 83 83 82 83 82 81 83 83 82 81 80 81 84 85 84 84 84 85 86 86 86 87 88 88 86 87 91 94 95 98 102
145 127 113 109 103 99 96 93 90 87 84 83 82 82 82 83 82 82 82 83 82 82 79 80 85 85 84 84 83 84 88 88 86 85 83 80 80 83 89 91 94 96 101
127 119 116 112 107 102 98 95 92 90 88 86 84 83 81 80 79 80 84 86 84 81 78 77 80 83 85 82 82 81 83 87 90 83 75 64 70 79 86 90 92 93 95
130 126 123 117 110 104 100 97 93 91 90 89 88 87 85 84 83 82 84 87 86 84 82 81 81 80 82 80 79 82 78 83 86 77 62 46 61 83 90 91 89 90 91
127 127 132 123 116 110 104 99 95 94 93 92 91 91 90 89 87 85 86 87 87 86 85 85 84 79 77 77 76 79 78 82 78 67 55 48 60 92 92 90 88 88 88
134 137 137 128 121 115 109 104 100 97 93 93 93 93 92 91 90 90 88 89 91 89 87 86 83 80 73 72 69 72 76 83 67 57 60 56 74 96 96 92 86 83 82
143 148 143 136 131 124 117 111 107 103 100 96 94 92 89 89 89 93 91 90 93 94 93 92 88 83 76 74 73 67 72 75 62 57 66 69 91 99 98 92 86 80 73
151 157 154 148 142 134 127 123 117 110 103 100 96 93 92 94 95 96 92 92 95 94 94 97 94 91 85 76 71 73 73 67 69 71 72 79 101 101 101 95 87 77 67
153 156 162 159 149 145 142 139 134 123 114 108 102 99 100 102 100 100 101 99 97 95 94 92 85 86 81 72 72 74 70 66 59 59 76 80 99 99 99 96 91 79 69
152 160 164 168 163 157 159 158 148 132 121 117 114 107 109 105 100 103 105 104 97 94 93 89 79 79 75 71 77 73 67 61 51 55 46 87 94 95 95 97 92 82 71
157 167 167 170 171 176 191 183 156 116 90 66 14 29 81 43 23 27 112 111 97 92 82 78 74 75 67 67 77 75 65 50 52 50 48 85 94 95 94 91 86 78 70
166 174 168 166 165 172 182 124 64 355 14 27 17 5 46 74 315 69 24 62 67 69 58 58 55 58 56 45 61 68 61 54 52 45 61 81 90 92 91 85 78 68 63
162 160 159 163 160 154 138 123 74 16 16 21 28 70 90 78 45 43 30 24 35 49 40 35 37 44 54 57 63 67 63 60 48 38 59 75 81 84 84 81 77 67 60
140 145 144 145 140 131 121 116 106 75 34 30 33 79 91 82 59 53 54 42 45 53 58 49 50 48 63 69 71 73 69 69 56 42 57 69 72 79 82 81 76 68 60
127 130 132 132 130 122 109 100 88 73 61 45 45 53 85 98 88 78 74 70 65 72 72 64 63 63 66 62 72 78 78 77 65 52 48 64 67 71 77 76 72 67 63
132 129 129 124 124 117 106 99 90 81 68 50 42 53 73 89 91 85 72 66 64 72 78 80 77 74 68 66 67 70 73 75 69 58 49 55 61 65 68 69 67 64 63
139 133 131 123 113 107 101 97 90 76 72 60 43 51 65 74 81 84 75 69 65 77 82 77 69 66 69 64 58 60 62 63 70 62 55 48 47 56 62 65 63 60 58
134 127 128 121 110 103 101 93 81 71 69 59 49 50 54 63 80 83 80 72 75 78 79 82 73 75 68 63 58 51 50 56 64 63 59 53 47 46 51 57 57 55 54
138 133 123 117 113 104 98 88 78 72 64 55 53 51 46 55 72 83 81 83 83 77 73 88 73 82 83 74 70 57 45 47 51 67 63 57 52 49 44 51 52 50 50
141 137 126 120 118 111 96 82 68 58 49 44 48 50 51 53 64 76 79 78 82 80 71 79 82 71 81 86 81 63 43 41 45 51 58 56 52 52 48 46 38 40 44
136 135 133 130 129 117 103 97 88 72 48 41 45 52 56 58 65 77 81 76 81 87 92 96 94 81 69 84 82 59 36 38 44 40 43 51 48 46 50 47 41 36 32
147 146 143 141 138 131 127 129 129 122 89 61 33 40 46 59 66 87 91 90 91 93 88 90 97 94 76 62 101 93 52 20 18 26 30 49 45 42 49 50 45 43 35
154 160 155 150 140 131 122 105 88 65 47 36 30 26 24 57 67 81 94 97 97 102 109 106 109 114 117 30 82 126 128 150 9 3 19 31 35 40 40 42 45 39 37
168 158 148 148 140 134 128 124 123 121 126 171 162 60 35 51 63 71 89 98 96 96 106 118 116 120 123 112 29 62 126 144 136 80 359 6 27 38 35 42 38 35 32
161 153 151 147 141 139 135 134 128 127 142 135 95 75 47 34 47 66 83 93 97 97 105 95 94 101 116 131 127 101 81 73 95 124 112 345 7 11 22 32 34 31 26
156 150 150 147 145 143 141 138 137 141 140 128 119 106 63 32 29 47 78 85 94 97 104 106 98 98 100 102 101 107 125 131 137 124 131 123 13 343 4 17 27 23 22